owner,sensor,date,latitude,longitude,sea_surface_height_above_sea_level,qcFlag 
COMPS,ioos:station:USF.COMPS:FHP:1,2017-09-01T00:00:00Z,28.1530,-82.8010,-9.731,1111122 
COMPS,ioos:station:USF.COMPS:FHP:1,2017-09-01T00:06:00Z,28.1530,-82.8010,-9.72,1111122 
COMPS,ioos:station:USF.COMPS:FHP:1,2017-09-01T00:12:00Z,28.1530,-82.8010,-9.718,1111122 
COMPS,ioos:station:USF.COMPS:FHP:1,2017-09-01T00:18:00Z,28.1530,-82.8010,-9.707,1111122 
COMPS,ioos:station:USF.COMPS:FHP:1,2017-09-01T00:24:00Z,28.1530,-82.8010,-9.696,1111122 
COMPS,ioos:station:USF.COMPS:FHP:1,2017-09-01T00:30:00Z,28.1530,-82.8010,-9.688,1111122 
COMPS,ioos:station:USF.COMPS:FHP:1,2017-09-01T00:36:00Z,28.1530,-82.8010,-9.685,1111122 
COMPS,ioos:station:USF.COMPS:FHP:1,2017-09-01T00:48:00Z,28.1530,-82.8010,-9.67,1111122 
COMPS,ioos:station:USF.COMPS:FHP:1,2017-09-01T00:54:00Z,28.1530,-82.8010,-9.663,1111122 
COMPS,ioos:station:USF.COMPS:FHP:1,2017-09-01T01:00:00Z,28.1530,-82.8010,-9.652,1111122 
COMPS,ioos:station:USF.COMPS:FHP:1,2017-09-01T01:06:00Z,28.1530,-82.8010,-9.649,1111122 
COMPS,ioos:station:USF.COMPS:FHP:1,2017-09-01T01:12:00Z,28.1530,-82.8010,-9.647,1111122 
COMPS,ioos:station:USF.COMPS:FHP:1,2017-09-01T01:18:00Z,28.1530,-82.8010,-9.642,1111122 
COMPS,ioos:station:USF.COMPS:FHP:1,2017-09-01T01:24:00Z,28.1530,-82.8010,-9.628,1111122 
COMPS,ioos:station:USF.COMPS:FHP:1,2017-09-01T01:30:00Z,28.1530,-82.8010,-9.615,1111122 
COMPS,ioos:station:USF.COMPS:FHP:1,2017-09-01T01:36:00Z,28.1530,-82.8010,-9.604,1111122 
COMPS,ioos:station:USF.COMPS:FHP:1,2017-09-01T01:42:00Z,28.1530,-82.8010,-9.606,1111122 
COMPS,ioos:station:USF.COMPS:FHP:1,2017-09-01T01:54:00Z,28.1530,-82.8010,-9.601,1111122 
COMPS,ioos:station:USF.COMPS:FHP:1,2017-09-01T02:00:00Z,28.1530,-82.8010,-9.592,1111122 
COMPS,ioos:station:USF.COMPS:FHP:1,2017-09-01T02:06:00Z,28.1530,-82.8010,-9.598,1111122 
COMPS,ioos:station:USF.COMPS:FHP:1,2017-09-01T02:12:00Z,28.1530,-82.8010,-9.589,1111122 
COMPS,ioos:station:USF.COMPS:FHP:1,2017-09-01T02:18:00Z,28.1530,-82.8010,-9.587,1111122 
COMPS,ioos:station:USF.COMPS:FHP:1,2017-09-01T02:24:00Z,28.1530,-82.8010,-9.591,1111122 
COMPS,ioos:station:USF.COMPS:FHP:1,2017-09-01T02:30:00Z,28.1530,-82.8010,-9.597,1111122 
COMPS,ioos:station:USF.COMPS:FHP:1,2017-09-01T02:36:00Z,28.1530,-82.8010,-9.593,1111122 
COMPS,ioos:station:USF.COMPS:FHP:1,2017-09-01T02:42:00Z,28.1530,-82.8010,-9.591,1111122 
COMPS,ioos:station:USF.COMPS:FHP:1,2017-09-01T02:48:00Z,28.1530,-82.8010,-9.596,1111122 
COMPS,ioos:station:USF.COMPS:FHP:1,2017-09-01T03:00:00Z,28.1530,-82.8010,-9.611,1111122 
COMPS,ioos:station:USF.COMPS:FHP:1,2017-09-01T03:06:00Z,28.1530,-82.8010,-9.618,1111122 
COMPS,ioos:station:USF.COMPS:FHP:1,2017-09-01T03:12:00Z,28.1530,-82.8010,-9.598,1111122 
COMPS,ioos:station:USF.COMPS:FHP:1,2017-09-01T03:18:00Z,28.1530,-82.8010,-9.615,1111122 
COMPS,ioos:station:USF.COMPS:FHP:1,2017-09-01T03:24:00Z,28.1530,-82.8010,-9.604,1111122 
COMPS,ioos:station:USF.COMPS:FHP:1,2017-09-01T03:30:00Z,28.1530,-82.8010,-9.612,1111122 
COMPS,ioos:station:USF.COMPS:FHP:1,2017-09-01T03:42:00Z,28.1530,-82.8010,-9.622,1111122 
COMPS,ioos:station:USF.COMPS:FHP:1,2017-09-01T03:48:00Z,28.1530,-82.8010,-9.637,1111122 
COMPS,ioos:station:USF.COMPS:FHP:1,2017-09-01T03:54:00Z,28.1530,-82.8010,-9.643,1111122 
COMPS,ioos:station:USF.COMPS:FHP:1,2017-09-01T04:00:00Z,28.1530,-82.8010,-9.639,1111122 
COMPS,ioos:station:USF.COMPS:FHP:1,2017-09-01T04:06:00Z,28.1530,-82.8010,-9.631,1111122 
COMPS,ioos:station:USF.COMPS:FHP:1,2017-09-01T04:12:00Z,28.1530,-82.8010,-9.61,1111122 
COMPS,ioos:station:USF.COMPS:FHP:1,2017-09-01T04:18:00Z,28.1530,-82.8010,-9.615,1111122 
COMPS,ioos:station:USF.COMPS:FHP:1,2017-09-01T04:24:00Z,28.1530,-82.8010,-9.627,1111122 
COMPS,ioos:station:USF.COMPS:FHP:1,2017-09-01T04:30:00Z,28.1530,-82.8010,-9.631,1111122 
COMPS,ioos:station:USF.COMPS:FHP:1,2017-09-01T04:36:00Z,28.1530,-82.8010,-9.643,1111122 
COMPS,ioos:station:USF.COMPS:FHP:1,2017-09-01T04:42:00Z,28.1530,-82.8010,-9.642,1111122 
COMPS,ioos:station:USF.COMPS:FHP:1,2017-09-01T04:48:00Z,28.1530,-82.8010,-9.649,1111122 
COMPS,ioos:station:USF.COMPS:FHP:1,2017-09-01T04:54:00Z,28.1530,-82.8010,-9.661,1111122 
COMPS,ioos:station:USF.COMPS:FHP:1,2017-09-01T05:06:00Z,28.1530,-82.8010,-9.668,1111122 
COMPS,ioos:station:USF.COMPS:FHP:1,2017-09-01T05:12:00Z,28.1530,-82.8010,-9.679,1111122 
COMPS,ioos:station:USF.COMPS:FHP:1,2017-09-01T05:18:00Z,28.1530,-82.8010,-9.687,1111122 
COMPS,ioos:station:USF.COMPS:FHP:1,2017-09-01T05:30:00Z,28.1530,-82.8010,-9.709,1111122 
COMPS,ioos:station:USF.COMPS:FHP:1,2017-09-01T05:36:00Z,28.1530,-82.8010,-9.723,1111122 
COMPS,ioos:station:USF.COMPS:FHP:1,2017-09-01T05:42:00Z,28.1530,-82.8010,-9.731,1111122 
COMPS,ioos:station:USF.COMPS:FHP:1,2017-09-01T05:48:00Z,28.1530,-82.8010,-9.741,1111122 
COMPS,ioos:station:USF.COMPS:FHP:1,2017-09-01T05:54:00Z,28.1530,-82.8010,-9.744,1111122 
COMPS,ioos:station:USF.COMPS:FHP:1,2017-09-01T06:00:00Z,28.1530,-82.8010,-9.741,1111122 
COMPS,ioos:station:USF.COMPS:FHP:1,2017-09-01T06:06:00Z,28.1530,-82.8010,-9.741,1111122 
COMPS,ioos:station:USF.COMPS:FHP:1,2017-09-01T06:12:00Z,28.1530,-82.8010,-9.766,1111122 
COMPS,ioos:station:USF.COMPS:FHP:1,2017-09-01T06:18:00Z,28.1530,-82.8010,-9.774,1111122 
COMPS,ioos:station:USF.COMPS:FHP:1,2017-09-01T06:24:00Z,28.1530,-82.8010,-9.782,1111122 
COMPS,ioos:station:USF.COMPS:FHP:1,2017-09-01T06:30:00Z,28.1530,-82.8010,-9.787,1111122 
COMPS,ioos:station:USF.COMPS:FHP:1,2017-09-01T06:42:00Z,28.1530,-82.8010,-9.782,1111122 
COMPS,ioos:station:USF.COMPS:FHP:1,2017-09-01T06:48:00Z,28.1530,-82.8010,-9.779,1111122 
COMPS,ioos:station:USF.COMPS:FHP:1,2017-09-01T06:54:00Z,28.1530,-82.8010,-9.781,1111122 
COMPS,ioos:station:USF.COMPS:FHP:1,2017-09-01T07:00:00Z,28.1530,-82.8010,-9.784,1111122 
COMPS,ioos:station:USF.COMPS:FHP:1,2017-09-01T07:06:00Z,28.1530,-82.8010,-9.793,1111122 
COMPS,ioos:station:USF.COMPS:FHP:1,2017-09-01T07:18:00Z,28.1530,-82.8010,-9.802,1111122 
COMPS,ioos:station:USF.COMPS:FHP:1,2017-09-01T07:24:00Z,28.1530,-82.8010,-9.796,1111122 
COMPS,ioos:station:USF.COMPS:FHP:1,2017-09-01T07:30:00Z,28.1530,-82.8010,-9.807,1111122 
COMPS,ioos:station:USF.COMPS:FHP:1,2017-09-01T07:36:00Z,28.1530,-82.8010,-9.803,1111122 
COMPS,ioos:station:USF.COMPS:FHP:1,2017-09-01T07:42:00Z,28.1530,-82.8010,-9.788,1111122 
COMPS,ioos:station:USF.COMPS:FHP:1,2017-09-01T07:48:00Z,28.1530,-82.8010,-9.785,1111122 
COMPS,ioos:station:USF.COMPS:FHP:1,2017-09-01T07:54:00Z,28.1530,-82.8010,-9.773,1111122 
COMPS,ioos:station:USF.COMPS:FHP:1,2017-09-01T08:00:00Z,28.1530,-82.8010,-9.767,1111122 
COMPS,ioos:station:USF.COMPS:FHP:1,2017-09-01T08:06:00Z,28.1530,-82.8010,-9.764,1111122 
COMPS,ioos:station:USF.COMPS:FHP:1,2017-09-01T08:12:00Z,28.1530,-82.8010,-9.749,1111122 
COMPS,ioos:station:USF.COMPS:FHP:1,2017-09-01T08:18:00Z,28.1530,-82.8010,-9.731,1111122 
COMPS,ioos:station:USF.COMPS:FHP:1,2017-09-01T08:30:00Z,28.1530,-82.8010,-9.718,1111122 
COMPS,ioos:station:USF.COMPS:FHP:1,2017-09-01T08:36:00Z,28.1530,-82.8010,-9.714,1111122 
COMPS,ioos:station:USF.COMPS:FHP:1,2017-09-01T08:42:00Z,28.1530,-82.8010,-9.698,1111122 
COMPS,ioos:station:USF.COMPS:FHP:1,2017-09-01T08:54:00Z,28.1530,-82.8010,-9.676,1111122 
COMPS,ioos:station:USF.COMPS:FHP:1,2017-09-01T09:00:00Z,28.1530,-82.8010,-9.662,1111122 
COMPS,ioos:station:USF.COMPS:FHP:1,2017-09-01T09:06:00Z,28.1530,-82.8010,-9.649,1111122 
COMPS,ioos:station:USF.COMPS:FHP:1,2017-09-01T09:12:00Z,28.1530,-82.8010,-9.643,1111122 
COMPS,ioos:station:USF.COMPS:FHP:1,2017-09-01T09:18:00Z,28.1530,-82.8010,-9.633,1111122 
COMPS,ioos:station:USF.COMPS:FHP:1,2017-09-01T09:24:00Z,28.1530,-82.8010,-9.621,1111122 
COMPS,ioos:station:USF.COMPS:FHP:1,2017-09-01T09:30:00Z,28.1530,-82.8010,-9.616,1111122 
COMPS,ioos:station:USF.COMPS:FHP:1,2017-09-01T09:36:00Z,28.1530,-82.8010,-9.608,1111122 
COMPS,ioos:station:USF.COMPS:FHP:1,2017-09-01T09:42:00Z,28.1530,-82.8010,-9.593,1111122 
COMPS,ioos:station:USF.COMPS:FHP:1,2017-09-01T09:48:00Z,28.1530,-82.8010,-9.586,1111122 
COMPS,ioos:station:USF.COMPS:FHP:1,2017-09-01T09:54:00Z,28.1530,-82.8010,-9.574,1111122 
COMPS,ioos:station:USF.COMPS:FHP:1,2017-09-01T10:00:00Z,28.1530,-82.8010,-9.558,1111122 
COMPS,ioos:station:USF.COMPS:FHP:1,2017-09-01T10:12:00Z,28.1530,-82.8010,-9.547,1111122 
COMPS,ioos:station:USF.COMPS:FHP:1,2017-09-01T10:18:00Z,28.1530,-82.8010,-9.538,1111122 
COMPS,ioos:station:USF.COMPS:FHP:1,2017-09-01T10:24:00Z,28.1530,-82.8010,-9.54,1111122 
COMPS,ioos:station:USF.COMPS:FHP:1,2017-09-01T10:30:00Z,28.1530,-82.8010,-9.516,1111122 
COMPS,ioos:station:USF.COMPS:FHP:1,2017-09-01T10:36:00Z,28.1530,-82.8010,-9.513,1111122 
COMPS,ioos:station:USF.COMPS:FHP:1,2017-09-01T10:42:00Z,28.1530,-82.8010,-9.493,1111122 
COMPS,ioos:station:USF.COMPS:FHP:1,2017-09-01T10:48:00Z,28.1530,-82.8010,-9.48,1111122 
COMPS,ioos:station:USF.COMPS:FHP:1,2017-09-01T10:54:00Z,28.1530,-82.8010,-9.469,1111122 
COMPS,ioos:station:USF.COMPS:FHP:1,2017-09-01T11:00:00Z,28.1530,-82.8010,-9.461,1111122 
COMPS,ioos:station:USF.COMPS:FHP:1,2017-09-01T11:06:00Z,28.1530,-82.8010,-9.457,1111122 
COMPS,ioos:station:USF.COMPS:FHP:1,2017-09-01T11:12:00Z,28.1530,-82.8010,-9.444,1111122 
COMPS,ioos:station:USF.COMPS:FHP:1,2017-09-01T11:18:00Z,28.1530,-82.8010,-9.435,1111122 
COMPS,ioos:station:USF.COMPS:FHP:1,2017-09-01T11:24:00Z,28.1530,-82.8010,-9.429,1111122 
COMPS,ioos:station:USF.COMPS:FHP:1,2017-09-01T11:30:00Z,28.1530,-82.8010,-9.417,1111122 
COMPS,ioos:station:USF.COMPS:FHP:1,2017-09-01T11:36:00Z,28.1530,-82.8010,-9.403,1111122 
COMPS,ioos:station:USF.COMPS:FHP:1,2017-09-01T11:42:00Z,28.1530,-82.8010,-9.403,1111122 
COMPS,ioos:station:USF.COMPS:FHP:1,2017-09-01T11:48:00Z,28.1530,-82.8010,-9.396,1111122 
COMPS,ioos:station:USF.COMPS:FHP:1,2017-09-01T11:54:00Z,28.1530,-82.8010,-9.4,1111122 
COMPS,ioos:station:USF.COMPS:FHP:1,2017-09-01T12:00:00Z,28.1530,-82.8010,-9.395,1111122 
COMPS,ioos:station:USF.COMPS:FHP:1,2017-09-01T12:06:00Z,28.1530,-82.8010,-9.393,1111122 
COMPS,ioos:station:USF.COMPS:FHP:1,2017-09-01T12:12:00Z,28.1530,-82.8010,-9.382,1111122 
COMPS,ioos:station:USF.COMPS:FHP:1,2017-09-01T12:18:00Z,28.1530,-82.8010,-9.376,1111122 
COMPS,ioos:station:USF.COMPS:FHP:1,2017-09-01T12:24:00Z,28.1530,-82.8010,-9.369,1111122 
COMPS,ioos:station:USF.COMPS:FHP:1,2017-09-01T12:30:00Z,28.1530,-82.8010,-9.373,1111122 
COMPS,ioos:station:USF.COMPS:FHP:1,2017-09-01T12:36:00Z,28.1530,-82.8010,-9.377,1111122 
COMPS,ioos:station:USF.COMPS:FHP:1,2017-09-01T12:42:00Z,28.1530,-82.8010,-9.375,1111122 
COMPS,ioos:station:USF.COMPS:FHP:1,2017-09-01T12:48:00Z,28.1530,-82.8010,-9.369,1111122 
COMPS,ioos:station:USF.COMPS:FHP:1,2017-09-01T12:54:00Z,28.1530,-82.8010,-9.373,1111122 
COMPS,ioos:station:USF.COMPS:FHP:1,2017-09-01T13:00:00Z,28.1530,-82.8010,-9.363,1111122 
COMPS,ioos:station:USF.COMPS:FHP:1,2017-09-01T13:06:00Z,28.1530,-82.8010,-9.372,1111122 
COMPS,ioos:station:USF.COMPS:FHP:1,2017-09-01T13:12:00Z,28.1530,-82.8010,-9.367,1111122 
COMPS,ioos:station:USF.COMPS:FHP:1,2017-09-01T13:18:00Z,28.1530,-82.8010,-9.373,1111122 
COMPS,ioos:station:USF.COMPS:FHP:1,2017-09-01T13:24:00Z,28.1530,-82.8010,-9.376,1111122 
COMPS,ioos:station:USF.COMPS:FHP:1,2017-09-01T13:30:00Z,28.1530,-82.8010,-9.388,1111122 
COMPS,ioos:station:USF.COMPS:FHP:1,2017-09-01T13:36:00Z,28.1530,-82.8010,-9.394,1111122 
COMPS,ioos:station:USF.COMPS:FHP:1,2017-09-01T13:42:00Z,28.1530,-82.8010,-9.401,1111122 
COMPS,ioos:station:USF.COMPS:FHP:1,2017-09-01T13:48:00Z,28.1530,-82.8010,-9.401,1111122 
COMPS,ioos:station:USF.COMPS:FHP:1,2017-09-01T13:54:00Z,28.1530,-82.8010,-9.405,1111122 
COMPS,ioos:station:USF.COMPS:FHP:1,2017-09-01T14:00:00Z,28.1530,-82.8010,-9.415,1111122 
COMPS,ioos:station:USF.COMPS:FHP:1,2017-09-01T14:06:00Z,28.1530,-82.8010,-9.416,1111122 
COMPS,ioos:station:USF.COMPS:FHP:1,2017-09-01T14:12:00Z,28.1530,-82.8010,-9.416,1111122 
COMPS,ioos:station:USF.COMPS:FHP:1,2017-09-01T14:18:00Z,28.1530,-82.8010,-9.423,1111122 
COMPS,ioos:station:USF.COMPS:FHP:1,2017-09-01T14:24:00Z,28.1530,-82.8010,-9.418,1111122 
COMPS,ioos:station:USF.COMPS:FHP:1,2017-09-01T14:30:00Z,28.1530,-82.8010,-9.431,1111122 
COMPS,ioos:station:USF.COMPS:FHP:1,2017-09-01T14:36:00Z,28.1530,-82.8010,-9.439,1111122 
COMPS,ioos:station:USF.COMPS:FHP:1,2017-09-01T14:42:00Z,28.1530,-82.8010,-9.452,1111122 
COMPS,ioos:station:USF.COMPS:FHP:1,2017-09-01T14:48:00Z,28.1530,-82.8010,-9.462,1111122 
COMPS,ioos:station:USF.COMPS:FHP:1,2017-09-01T14:54:00Z,28.1530,-82.8010,-9.451,1111122 
COMPS,ioos:station:USF.COMPS:FHP:1,2017-09-01T15:00:00Z,28.1530,-82.8010,-9.463,1111122 
COMPS,ioos:station:USF.COMPS:FHP:1,2017-09-01T15:06:00Z,28.1530,-82.8010,-9.466,1111122 
COMPS,ioos:station:USF.COMPS:FHP:1,2017-09-01T15:12:00Z,28.1530,-82.8010,-9.474,1111122 
COMPS,ioos:station:USF.COMPS:FHP:1,2017-09-01T15:18:00Z,28.1530,-82.8010,-9.495,1111122 
COMPS,ioos:station:USF.COMPS:FHP:1,2017-09-01T15:24:00Z,28.1530,-82.8010,-9.502,1111122 
COMPS,ioos:station:USF.COMPS:FHP:1,2017-09-01T15:30:00Z,28.1530,-82.8010,-9.506,1111122 
COMPS,ioos:station:USF.COMPS:FHP:1,2017-09-01T15:36:00Z,28.1530,-82.8010,-9.521,1111122 
COMPS,ioos:station:USF.COMPS:FHP:1,2017-09-01T15:42:00Z,28.1530,-82.8010,-9.514,1111122 
COMPS,ioos:station:USF.COMPS:FHP:1,2017-09-01T15:48:00Z,28.1530,-82.8010,-9.533,1111122 
COMPS,ioos:station:USF.COMPS:FHP:1,2017-09-01T15:54:00Z,28.1530,-82.8010,-9.546,1111122 
COMPS,ioos:station:USF.COMPS:FHP:1,2017-09-01T16:00:00Z,28.1530,-82.8010,-9.566,1111122 
COMPS,ioos:station:USF.COMPS:FHP:1,2017-09-01T16:06:00Z,28.1530,-82.8010,-9.577,1111122 
COMPS,ioos:station:USF.COMPS:FHP:1,2017-09-01T16:12:00Z,28.1530,-82.8010,-9.567,1111122 
COMPS,ioos:station:USF.COMPS:FHP:1,2017-09-01T16:18:00Z,28.1530,-82.8010,-9.581,1111122 
COMPS,ioos:station:USF.COMPS:FHP:1,2017-09-01T16:24:00Z,28.1530,-82.8010,-9.591,1111122 
COMPS,ioos:station:USF.COMPS:FHP:1,2017-09-01T16:30:00Z,28.1530,-82.8010,-9.605,1111122 
COMPS,ioos:station:USF.COMPS:FHP:1,2017-09-01T16:36:00Z,28.1530,-82.8010,-9.635,1111122 
COMPS,ioos:station:USF.COMPS:FHP:1,2017-09-01T16:42:00Z,28.1530,-82.8010,-9.641,1111122 
COMPS,ioos:station:USF.COMPS:FHP:1,2017-09-01T16:48:00Z,28.1530,-82.8010,-9.649,1111122 
COMPS,ioos:station:USF.COMPS:FHP:1,2017-09-01T16:54:00Z,28.1530,-82.8010,-9.669,1111122 
COMPS,ioos:station:USF.COMPS:FHP:1,2017-09-01T17:00:00Z,28.1530,-82.8010,-9.678,1111122 
COMPS,ioos:station:USF.COMPS:FHP:1,2017-09-01T17:06:00Z,28.1530,-82.8010,-9.702,1111122 
COMPS,ioos:station:USF.COMPS:FHP:1,2017-09-01T17:12:00Z,28.1530,-82.8010,-9.707,1111122 
COMPS,ioos:station:USF.COMPS:FHP:1,2017-09-01T17:18:00Z,28.1530,-82.8010,-9.73,1111122 
COMPS,ioos:station:USF.COMPS:FHP:1,2017-09-01T17:24:00Z,28.1530,-82.8010,-9.746,1111122 
COMPS,ioos:station:USF.COMPS:FHP:1,2017-09-01T17:30:00Z,28.1530,-82.8010,-9.764,1111122 
COMPS,ioos:station:USF.COMPS:FHP:1,2017-09-01T17:36:00Z,28.1530,-82.8010,-9.774,1111122 
COMPS,ioos:station:USF.COMPS:FHP:1,2017-09-01T17:42:00Z,28.1530,-82.8010,-9.789,1111122 
COMPS,ioos:station:USF.COMPS:FHP:1,2017-09-01T17:48:00Z,28.1530,-82.8010,-9.808,1111122 
COMPS,ioos:station:USF.COMPS:FHP:1,2017-09-01T17:54:00Z,28.1530,-82.8010,-9.817,1111122 
COMPS,ioos:station:USF.COMPS:FHP:1,2017-09-01T18:00:00Z,28.1530,-82.8010,-9.827,1111122 
COMPS,ioos:station:USF.COMPS:FHP:1,2017-09-01T18:06:00Z,28.1530,-82.8010,-9.833,1111122 
COMPS,ioos:station:USF.COMPS:FHP:1,2017-09-01T18:12:00Z,28.1530,-82.8010,-9.843,1111122 
COMPS,ioos:station:USF.COMPS:FHP:1,2017-09-01T18:18:00Z,28.1530,-82.8010,-9.836,1111122 
COMPS,ioos:station:USF.COMPS:FHP:1,2017-09-01T18:24:00Z,28.1530,-82.8010,-9.85,1111122 
COMPS,ioos:station:USF.COMPS:FHP:1,2017-09-01T18:30:00Z,28.1530,-82.8010,-9.85,1111122 
COMPS,ioos:station:USF.COMPS:FHP:1,2017-09-01T18:36:00Z,28.1530,-82.8010,-9.86,1111122 
COMPS,ioos:station:USF.COMPS:FHP:1,2017-09-01T18:42:00Z,28.1530,-82.8010,-9.857,1111122 
COMPS,ioos:station:USF.COMPS:FHP:1,2017-09-01T18:48:00Z,28.1530,-82.8010,-9.857,1111122 
COMPS,ioos:station:USF.COMPS:FHP:1,2017-09-01T18:54:00Z,28.1530,-82.8010,-9.858,1111122 
COMPS,ioos:station:USF.COMPS:FHP:1,2017-09-01T19:00:00Z,28.1530,-82.8010,-9.866,1111122 
COMPS,ioos:station:USF.COMPS:FHP:1,2017-09-01T19:06:00Z,28.1530,-82.8010,-9.873,1111122 
COMPS,ioos:station:USF.COMPS:FHP:1,2017-09-01T19:12:00Z,28.1530,-82.8010,-9.878,1111122 
COMPS,ioos:station:USF.COMPS:FHP:1,2017-09-01T19:18:00Z,28.1530,-82.8010,-9.881,1111122 
COMPS,ioos:station:USF.COMPS:FHP:1,2017-09-01T19:24:00Z,28.1530,-82.8010,-9.901,1111122 
COMPS,ioos:station:USF.COMPS:FHP:1,2017-09-01T19:30:00Z,28.1530,-82.8010,-9.921,1111122 
COMPS,ioos:station:USF.COMPS:FHP:1,2017-09-01T19:36:00Z,28.1530,-82.8010,-9.927,1111122 
COMPS,ioos:station:USF.COMPS:FHP:1,2017-09-01T19:42:00Z,28.1530,-82.8010,-9.93,1111122 
COMPS,ioos:station:USF.COMPS:FHP:1,2017-09-01T19:48:00Z,28.1530,-82.8010,-9.934,1111122 
COMPS,ioos:station:USF.COMPS:FHP:1,2017-09-01T19:54:00Z,28.1530,-82.8010,-9.946,1111122 
COMPS,ioos:station:USF.COMPS:FHP:1,2017-09-01T20:00:00Z,28.1530,-82.8010,-9.965,1111122 
COMPS,ioos:station:USF.COMPS:FHP:1,2017-09-01T20:06:00Z,28.1530,-82.8010,-9.966,1111122 
COMPS,ioos:station:USF.COMPS:FHP:1,2017-09-01T20:12:00Z,28.1530,-82.8010,-9.972,1111122 
COMPS,ioos:station:USF.COMPS:FHP:1,2017-09-01T20:18:00Z,28.1530,-82.8010,-9.979,1111122 
COMPS,ioos:station:USF.COMPS:FHP:1,2017-09-01T20:24:00Z,28.1530,-82.8010,-9.979,1111122 
COMPS,ioos:station:USF.COMPS:FHP:1,2017-09-01T20:30:00Z,28.1530,-82.8010,-9.99,1111122 
COMPS,ioos:station:USF.COMPS:FHP:1,2017-09-01T20:36:00Z,28.1530,-82.8010,-9.99,1111122 
COMPS,ioos:station:USF.COMPS:FHP:1,2017-09-01T21:00:00Z,28.1530,-82.8010,-9.997,1111122 
COMPS,ioos:station:USF.COMPS:FHP:1,2017-09-01T21:06:00Z,28.1530,-82.8010,-9.997,1111122 
COMPS,ioos:station:USF.COMPS:FHP:1,2017-09-01T21:12:00Z,28.1530,-82.8010,-9.995,1111122 
COMPS,ioos:station:USF.COMPS:FHP:1,2017-09-01T21:18:00Z,28.1530,-82.8010,-9.98,1111122 
COMPS,ioos:station:USF.COMPS:FHP:1,2017-09-01T21:24:00Z,28.1530,-82.8010,-9.983,1111122 
COMPS,ioos:station:USF.COMPS:FHP:1,2017-09-01T21:30:00Z,28.1530,-82.8010,-9.965,1111122 
COMPS,ioos:station:USF.COMPS:FHP:1,2017-09-01T21:36:00Z,28.1530,-82.8010,-9.957,1111122 
COMPS,ioos:station:USF.COMPS:FHP:1,2017-09-01T21:42:00Z,28.1530,-82.8010,-9.951,1111122 
COMPS,ioos:station:USF.COMPS:FHP:1,2017-09-01T21:48:00Z,28.1530,-82.8010,-9.955,1111122 
COMPS,ioos:station:USF.COMPS:FHP:1,2017-09-01T21:54:00Z,28.1530,-82.8010,-9.938,1111122 
COMPS,ioos:station:USF.COMPS:FHP:1,2017-09-01T22:00:00Z,28.1530,-82.8010,-9.928,1111122 
COMPS,ioos:station:USF.COMPS:FHP:1,2017-09-01T22:06:00Z,28.1530,-82.8010,-9.921,1111122 
COMPS,ioos:station:USF.COMPS:FHP:1,2017-09-01T22:12:00Z,28.1530,-82.8010,-9.919,1111122 
COMPS,ioos:station:USF.COMPS:FHP:1,2017-09-01T22:18:00Z,28.1530,-82.8010,-9.922,1111122 
COMPS,ioos:station:USF.COMPS:FHP:1,2017-09-01T22:24:00Z,28.1530,-82.8010,-9.903,1111122 
COMPS,ioos:station:USF.COMPS:FHP:1,2017-09-01T22:30:00Z,28.1530,-82.8010,-9.896,1111122 
COMPS,ioos:station:USF.COMPS:FHP:1,2017-09-01T22:36:00Z,28.1530,-82.8010,-9.889,1111122 
COMPS,ioos:station:USF.COMPS:FHP:1,2017-09-01T22:42:00Z,28.1530,-82.8010,-9.871,1111122 
COMPS,ioos:station:USF.COMPS:FHP:1,2017-09-01T22:48:00Z,28.1530,-82.8010,-9.86,1111122 
COMPS,ioos:station:USF.COMPS:FHP:1,2017-09-01T22:54:00Z,28.1530,-82.8010,-9.837,1111122 
COMPS,ioos:station:USF.COMPS:FHP:1,2017-09-01T23:00:00Z,28.1530,-82.8010,-9.826,1111122 
COMPS,ioos:station:USF.COMPS:FHP:1,2017-09-01T23:06:00Z,28.1530,-82.8010,-9.823,1111122 
COMPS,ioos:station:USF.COMPS:FHP:1,2017-09-01T23:12:00Z,28.1530,-82.8010,-9.81,1111122 
COMPS,ioos:station:USF.COMPS:FHP:1,2017-09-01T23:18:00Z,28.1530,-82.8010,-9.806,1111122 
COMPS,ioos:station:USF.COMPS:FHP:1,2017-09-01T23:24:00Z,28.1530,-82.8010,-9.789,1111122 
COMPS,ioos:station:USF.COMPS:FHP:1,2017-09-01T23:30:00Z,28.1530,-82.8010,-9.771,1111122 
COMPS,ioos:station:USF.COMPS:FHP:1,2017-09-01T23:36:00Z,28.1530,-82.8010,-9.747,1111122 
COMPS,ioos:station:USF.COMPS:FHP:1,2017-09-01T23:42:00Z,28.1530,-82.8010,-9.737,1111122 
COMPS,ioos:station:USF.COMPS:FHP:1,2017-09-01T23:48:00Z,28.1530,-82.8010,-9.754,1111122 
COMPS,ioos:station:USF.COMPS:FHP:1,2017-09-01T23:54:00Z,28.1530,-82.8010,-9.747,1111122 
COMPS,ioos:station:USF.COMPS:FHP:1,2017-09-02T00:00:00Z,28.1530,-82.8010,-9.748,1111122 
COMPS,ioos:station:USF.COMPS:FHP:1,2017-09-02T00:06:00Z,28.1530,-82.8010,-9.747,1111122 
COMPS,ioos:station:USF.COMPS:FHP:1,2017-09-02T00:12:00Z,28.1530,-82.8010,-9.744,1111122 
COMPS,ioos:station:USF.COMPS:FHP:1,2017-09-02T00:18:00Z,28.1530,-82.8010,-9.747,1111122 
COMPS,ioos:station:USF.COMPS:FHP:1,2017-09-02T00:24:00Z,28.1530,-82.8010,-9.744,1111122 
COMPS,ioos:station:USF.COMPS:FHP:1,2017-09-02T00:30:00Z,28.1530,-82.8010,-9.734,1111122 
COMPS,ioos:station:USF.COMPS:FHP:1,2017-09-02T00:36:00Z,28.1530,-82.8010,-9.716,1111122 
COMPS,ioos:station:USF.COMPS:FHP:1,2017-09-02T00:42:00Z,28.1530,-82.8010,-9.701,1111122 
COMPS,ioos:station:USF.COMPS:FHP:1,2017-09-02T00:54:00Z,28.1530,-82.8010,-9.663,1111122 
COMPS,ioos:station:USF.COMPS:FHP:1,2017-09-02T01:00:00Z,28.1530,-82.8010,-9.642,1111122 
COMPS,ioos:station:USF.COMPS:FHP:1,2017-09-02T01:06:00Z,28.1530,-82.8010,-9.632,1111122 
COMPS,ioos:station:USF.COMPS:FHP:1,2017-09-02T01:12:00Z,28.1530,-82.8010,-9.61,1111122 
COMPS,ioos:station:USF.COMPS:FHP:1,2017-09-02T01:18:00Z,28.1530,-82.8010,-9.592,1111122 
COMPS,ioos:station:USF.COMPS:FHP:1,2017-09-02T01:24:00Z,28.1530,-82.8010,-9.581,1111122 
COMPS,ioos:station:USF.COMPS:FHP:1,2017-09-02T01:30:00Z,28.1530,-82.8010,-9.558,1111122 
COMPS,ioos:station:USF.COMPS:FHP:1,2017-09-02T01:36:00Z,28.1530,-82.8010,-9.534,1111122 
COMPS,ioos:station:USF.COMPS:FHP:1,2017-09-02T01:42:00Z,28.1530,-82.8010,-9.506,1111122 
COMPS,ioos:station:USF.COMPS:FHP:1,2017-09-02T01:48:00Z,28.1530,-82.8010,-9.493,1111122 
COMPS,ioos:station:USF.COMPS:FHP:1,2017-09-02T01:54:00Z,28.1530,-82.8010,-9.48,1111122 
COMPS,ioos:station:USF.COMPS:FHP:1,2017-09-02T02:00:00Z,28.1530,-82.8010,-9.474,1111122 
COMPS,ioos:station:USF.COMPS:FHP:1,2017-09-02T02:06:00Z,28.1530,-82.8010,-9.478,1111122 
COMPS,ioos:station:USF.COMPS:FHP:1,2017-09-02T02:12:00Z,28.1530,-82.8010,-9.46,1111122 
COMPS,ioos:station:USF.COMPS:FHP:1,2017-09-02T02:18:00Z,28.1530,-82.8010,-9.448,1111122 
COMPS,ioos:station:USF.COMPS:FHP:1,2017-09-02T02:24:00Z,28.1530,-82.8010,-9.457,1111122 
COMPS,ioos:station:USF.COMPS:FHP:1,2017-09-02T02:30:00Z,28.1530,-82.8010,-9.451,1111122 
COMPS,ioos:station:USF.COMPS:FHP:1,2017-09-02T02:36:00Z,28.1530,-82.8010,-9.451,1111122 
COMPS,ioos:station:USF.COMPS:FHP:1,2017-09-02T02:42:00Z,28.1530,-82.8010,-9.442,1111122 
COMPS,ioos:station:USF.COMPS:FHP:1,2017-09-02T02:54:00Z,28.1530,-82.8010,-9.428,1111122 
COMPS,ioos:station:USF.COMPS:FHP:1,2017-09-02T03:00:00Z,28.1530,-82.8010,-9.405,1111122 
COMPS,ioos:station:USF.COMPS:FHP:1,2017-09-02T03:06:00Z,28.1530,-82.8010,-9.382,1111122 
COMPS,ioos:station:USF.COMPS:FHP:1,2017-09-02T03:12:00Z,28.1530,-82.8010,-9.325,1111122 
COMPS,ioos:station:USF.COMPS:FHP:1,2017-09-02T03:18:00Z,28.1530,-82.8010,-9.294,1111122 
COMPS,ioos:station:USF.COMPS:FHP:1,2017-09-02T03:24:00Z,28.1530,-82.8010,-9.266,1111122 
COMPS,ioos:station:USF.COMPS:FHP:1,2017-09-02T03:30:00Z,28.1530,-82.8010,-9.335,1111122 
COMPS,ioos:station:USF.COMPS:FHP:1,2017-09-02T03:36:00Z,28.1530,-82.8010,-9.432,1111122 
COMPS,ioos:station:USF.COMPS:FHP:1,2017-09-02T03:42:00Z,28.1530,-82.8010,-9.482,1111122 
COMPS,ioos:station:USF.COMPS:FHP:1,2017-09-02T03:48:00Z,28.1530,-82.8010,-9.522,1111122 
COMPS,ioos:station:USF.COMPS:FHP:1,2017-09-02T03:54:00Z,28.1530,-82.8010,-9.559,1111122 
COMPS,ioos:station:USF.COMPS:FHP:1,2017-09-02T04:00:00Z,28.1530,-82.8010,-9.583,1111122 
COMPS,ioos:station:USF.COMPS:FHP:1,2017-09-02T04:06:00Z,28.1530,-82.8010,-9.607,1111122 
COMPS,ioos:station:USF.COMPS:FHP:1,2017-09-02T04:12:00Z,28.1530,-82.8010,-9.626,1111122 
COMPS,ioos:station:USF.COMPS:FHP:1,2017-09-02T04:18:00Z,28.1530,-82.8010,-9.635,1111122 